Tracking 33208 objects as of 14-Feb-2026
HD Live streaming from Space Station
objects crossing your sky now

STARLINK-5631

Track STARLINK-5631 now!
10-day predictions
STARLINK-5631 is classified as:


NORAD ID: 55346
Int'l Code: 2023-013R
Perigee: 565.4 km
Apogee: 567.1 km
Inclination: 43.0 °
Period: 95.8 minutes
Semi major axis: 6937 km
RCS: Unknown
Launch date: January 26, 2023
Source: United States (US)
Launch site: AIR FORCE EASTERN TEST RANGE (AFETR)
Your satellite tracking list
Your tracking list is empty




NASA's NSSDC Master Catalog

Two Line Element Set (TLE):
1 55346U 23013R   26045.05534153 -.00000021  00000-0  13487-4 0  9996
2 55346  43.0024  68.8003 0001237 254.5617 105.5089 15.02536232168154
Source of the keplerian elements: AFSPC